Change the Weather History Date:

Friday, October 26, 2012

  Actual Average (KEVV) Record (KEVV)
Temperature  
Mean Temperature 44 °F 54 °F  
Max Temperature 48 °F 66 °F 87 °F (1940)
Min Temperature 41 °F 43 °F 23 °F (1962)
Degree Days  
Heating Degree Days 20 11  
Month to date heating degree days 199  
Since 1 July heating degree days 246  
Cooling Degree Days 0 0  
Month to date cooling degree days 28  
Year to date cooling degree days 1394  
Moisture  
Dew Point 38 °F    
Average Humidity 79    
Maximum Humidity 100    
Minimum Humidity 62    
Precipitation  
Precipitation 0.36 in 0.11 in 1.02 in (1932)
Month to date precipitation 2.69  
Year to date precipitation 36.66  
Snow  
Snow 0.00 in 0.00 in T in (1957)
Month to date snowfall 0.1  
Since 1 July snowfall 0.1  
Since 1 September snowfall 0.1  
Snow Depth -    
Sea Level Pressure  
Sea Level Pressure 30.22 in    
Wind  
Wind Speed 12 mph (NNW)    
Max Wind Speed 21 mph    
Max Gust Speed 28 mph    
Visibility 10 miles    
Events Rain    
T = Trace of Precipitation, MM = Missing Value Source: NWS Daily Summary

Daily Weather History Graph

Daily Weather History Graph

Search for Another Location

Airport or City:

Trip Planner

Search our weather history database for the weather conditions in past years. The results will help you decide how hot, cold, wet, or windy it might be!

Date:

Astronomy

Oct. 26, 2012 Rise Set
Actual Time 7:13 AM CDT 5:58 PM CDT
Civil Twilight 6:46 AM CDT 6:26 PM CDT
Nautical Twilight 6:15 AM CDT 6:57 PM CDT
Astronomical Twilight 5:44 AM CDT 7:28 PM CDT
Moon 4:13 PM CDT (10/26) 4:11 AM CDT (10/26)
Length of Visible Light 11h 39m
Length of Day
10h 45m
Waxing Gibbous, 91% of the Moon is Illuminated
Oct 26
Waxing Gibbous
Oct 29
Full
Nov 6
Last Quarter
Nov 13
New
Nov 20
First Quarter

Hourly Weather History & Observations

Time (CDT) Temp. Windchill Dew Point Humidity Pressure Visibility Wind Dir Wind Speed Gust Speed Precip Events Conditions
12:15 AM - - - N/A% 30.10 in - NW 11.5 mph - N/A   Unknown
12:35 AM 46.4 °F 40.7 °F 46.4 °F 100% 30.11 in 7.0 mi NW 12.7 mph 19.6 mph 0.02 in Rain Rain
12:55 AM 46.4 °F 41.5 °F 46.4 °F 100% 30.11 in 7.0 mi NW 10.4 mph 18.4 mph 0.02 in Rain Light Rain
1:15 AM 46.4 °F 40.4 °F 46.4 °F 100% 30.10 in 10.0 mi NNW 13.8 mph 20.7 mph 0.06 in Rain Light Rain
1:35 AM 46.4 °F 39.8 °F 46.4 °F 100% 30.11 in 10.0 mi NNW 16.1 mph 21.9 mph 0.06 in Rain Light Rain
1:55 AM 46.4 °F 40.4 °F 46.4 °F 100% 30.12 in 10.0 mi North 13.8 mph 23.0 mph 0.02 in Rain Rain
2:15 AM 46.4 °F 40.4 °F 46.4 °F 100% 30.14 in 7.0 mi NNW 13.8 mph - 0.04 in Rain Rain
2:35 AM 46.4 °F 41.1 °F 46.4 °F 100% 30.15 in 5.0 mi NNW 11.5 mph - 0.07 in Rain Rain
2:55 AM 46.4 °F 41.1 °F 46.4 °F 100% 30.16 in 10.0 mi NNW 11.5 mph - 0.05 in Rain Rain
3:15 AM 46.4 °F 41.1 °F 46.4 °F 100% 30.16 in 10.0 mi NNW 11.5 mph 18.4 mph 0.14 in Rain Rain
3:35 AM 44.6 °F 36.6 °F 44.6 °F 100% 30.15 in 10.0 mi NNW 19.6 mph 26.5 mph 0.19 in Rain Rain
3:55 AM 44.6 °F 36.9 °F 44.6 °F 100% 30.15 in 10.0 mi North 18.4 mph 23.0 mph 0.01 in Rain Light Rain
4:15 AM 44.6 °F 37.8 °F 44.6 °F 100% 30.17 in 10.0 mi NNW 15.0 mph 18.4 mph 0.01 in Rain Light Rain
4:35 AM 42.8 °F 36.2 °F 41.0 °F 93% 30.17 in 10.0 mi North 12.7 mph 20.7 mph 0.02 in Rain Light Rain
4:55 AM 42.8 °F 37.0 °F 41.0 °F 93% 30.18 in 10.0 mi NNW 10.4 mph 17.3 mph N/A   Overcast
5:15 AM 42.8 °F 37.0 °F 39.2 °F 87% 30.19 in 10.0 mi North 10.4 mph 18.4 mph N/A   Overcast
5:35 AM 42.8 °F 35.4 °F 39.2 °F 87% - 10.0 mi North 15.0 mph 24.2 mph N/A   Overcast
5:55 AM 42.8 °F - 37.4 °F 81% 30.20 in 10.0 mi North - - N/A   Overcast
6:15 AM 42.8 °F 37.0 °F 39.2 °F 87% 30.21 in 10.0 mi NNW 10.4 mph - N/A   Overcast
6:35 AM 42.8 °F 37.5 °F 39.2 °F 87% 30.21 in 10.0 mi North 9.2 mph - N/A   Overcast
6:55 AM 42.8 °F 34.8 °F 35.6 °F 76% 30.21 in 10.0 mi NNW 17.3 mph 25.3 mph N/A   Overcast
7:15 AM 42.8 °F 34.8 °F 35.6 °F 76% 30.23 in 10.0 mi NNW 17.3 mph 25.3 mph N/A   Overcast
7:35 AM 41.0 °F 32.5 °F 35.6 °F 81% 30.23 in 10.0 mi NNW 17.3 mph 26.5 mph N/A   Mostly Cloudy
7:55 AM 41.0 °F 31.6 °F 35.6 °F 81% 30.24 in 10.0 mi NNW 20.7 mph 27.6 mph N/A   Scattered Clouds
8:15 AM 41.0 °F 33.9 °F 35.6 °F 81% 30.25 in 10.0 mi NNW 12.7 mph 23.0 mph N/A   Mostly Cloudy
8:35 AM 41.0 °F 33.1 °F 35.6 °F 81% 30.26 in 10.0 mi NNW 15.0 mph 23.0 mph N/A   Overcast
8:55 AM 41.0 °F 33.9 °F 35.6 °F 81% 30.27 in 10.0 mi NNW 12.7 mph 23.0 mph N/A   Overcast
9:15 AM 41.0 °F 34.7 °F 35.6 °F 81% 30.26 in 10.0 mi North 10.4 mph 19.6 mph N/A   Overcast
9:35 AM 42.8 °F 35.8 °F 37.4 °F 81% 30.26 in 10.0 mi NNW 13.8 mph 18.4 mph N/A   Overcast
9:55 AM 42.8 °F 35.1 °F 37.4 °F 81% 30.27 in 10.0 mi NNW 16.1 mph 21.9 mph N/A   Overcast
10:15 AM 42.8 °F 35.8 °F 37.4 °F 81% 30.27 in 10.0 mi NNW 13.8 mph 18.4 mph N/A   Overcast
10:35 AM 44.6 °F 39.2 °F 37.4 °F 76% 30.27 in 10.0 mi North 10.4 mph - N/A   Overcast
10:55 AM 44.6 °F 38.8 °F 37.4 °F 76% 30.27 in 10.0 mi North 11.5 mph 16.1 mph N/A   Overcast
11:15 AM 44.6 °F 38.1 °F 37.4 °F 76% 30.27 in 10.0 mi North 13.8 mph 17.3 mph N/A   Overcast
11:35 AM 44.6 °F 38.1 °F 37.4 °F 76% 30.27 in 10.0 mi North 13.8 mph 18.4 mph N/A   Overcast
11:55 AM 46.4 °F 40.4 °F 37.4 °F 71% 30.28 in 10.0 mi North 13.8 mph 17.3 mph N/A   Overcast
12:15 PM 46.4 °F 40.7 °F 37.4 °F 71% 30.27 in 10.0 mi North 12.7 mph 19.6 mph N/A   Overcast
12:35 PM 46.4 °F 40.1 °F 37.4 °F 71% 30.27 in 10.0 mi North 15.0 mph 20.7 mph N/A   Overcast
12:55 PM 46.4 °F 41.9 °F 37.4 °F 71% 30.27 in 10.0 mi NNE 9.2 mph 18.4 mph N/A   Mostly Cloudy
1:15 PM 46.4 °F 41.1 °F 37.4 °F 71% 30.25 in 10.0 mi North 11.5 mph 19.6 mph N/A   Scattered Clouds
1:35 PM 48.2 °F - 37.4 °F 66% 30.24 in 10.0 mi North 11.5 mph 17.3 mph N/A   Mostly Cloudy
1:55 PM 48.2 °F - 37.4 °F 66% 30.24 in 10.0 mi NNW 10.4 mph - N/A   Mostly Cloudy
2:15 PM 48.2 °F - 37.4 °F 66% 30.23 in 10.0 mi North 10.4 mph 19.6 mph N/A   Mostly Cloudy
2:35 PM 48.2 °F - 37.4 °F 66% 30.23 in 10.0 mi North 10.4 mph 17.3 mph N/A   Overcast
2:55 PM 48.2 °F - 37.4 °F 66% 30.23 in 10.0 mi North 11.5 mph 18.4 mph N/A   Overcast
3:15 PM 48.2 °F - 37.4 °F 66% 30.22 in 10.0 mi North 12.7 mph 18.4 mph N/A   Overcast
3:35 PM 48.2 °F - 37.4 °F 66% 30.22 in 10.0 mi NNW 17.3 mph - N/A   Overcast
3:55 PM 48.2 °F - 37.4 °F 66% 30.22 in 10.0 mi North 13.8 mph 19.6 mph N/A   Overcast
4:15 PM 48.2 °F - 35.6 °F 62% 30.22 in 10.0 mi North 11.5 mph 17.3 mph N/A   Overcast
4:35 PM 48.2 °F - 35.6 °F 62% 30.21 in 10.0 mi NNW 17.3 mph - N/A   Scattered Clouds
4:55 PM 48.2 °F - 35.6 °F 62% 30.21 in 10.0 mi NNW 13.8 mph - N/A   Clear
5:15 PM 48.2 °F - 35.6 °F 62% 30.21 in 10.0 mi NNW 12.7 mph 18.4 mph N/A   Clear
5:35 PM 48.2 °F - 35.6 °F 62% 30.21 in 10.0 mi North 11.5 mph 19.6 mph N/A   Clear
5:55 PM 46.4 °F 41.1 °F 35.6 °F 66% 30.21 in 10.0 mi North 11.5 mph 17.3 mph N/A   Clear
6:15 PM 46.4 °F 42.4 °F 35.6 °F 66% 30.22 in 10.0 mi North 8.1 mph - N/A   Clear
6:35 PM 44.6 °F 39.7 °F 35.6 °F 71% 30.23 in 10.0 mi NNW 9.2 mph - N/A   Clear
6:55 PM 44.6 °F 40.2 °F 35.6 °F 71% 30.23 in 10.0 mi NNW 8.1 mph - N/A   Clear
7:15 PM 44.6 °F 40.7 °F 35.6 °F 71% 30.24 in 10.0 mi North 6.9 mph - N/A   Clear
7:35 PM 44.6 °F 40.7 °F 35.6 °F 71% 30.23 in 10.0 mi North 6.9 mph - N/A   Clear
7:55 PM 42.8 °F 39.3 °F 35.6 °F 76% 30.24 in 10.0 mi NNW 5.8 mph - N/A   Clear
8:15 PM 42.8 °F 40.1 °F 35.6 °F 76% 30.23 in 10.0 mi NNW 4.6 mph - N/A   Clear
8:35 PM 42.8 °F 39.3 °F 35.6 °F 76% 30.24 in 10.0 mi NNW 5.8 mph - N/A   Clear
8:55 PM 42.8 °F 38.6 °F 35.6 °F 76% 30.24 in 10.0 mi NNW 6.9 mph - N/A   Clear
9:15 PM 42.8 °F 38.6 °F 35.6 °F 76% 30.24 in 10.0 mi NNW 6.9 mph - N/A   Clear
9:35 PM 42.8 °F 38.6 °F 35.6 °F 76% 30.24 in 10.0 mi NNW 6.9 mph - N/A   Clear
9:55 PM 42.8 °F 38.0 °F 35.6 °F 76% 30.24 in 10.0 mi NNW 8.1 mph - N/A   Clear
10:15 PM 42.8 °F 38.0 °F 35.6 °F 76% 30.24 in 10.0 mi North 8.1 mph - N/A   Clear
10:35 PM 42.8 °F 38.6 °F 35.6 °F 76% 30.24 in 10.0 mi NNW 6.9 mph - N/A   Clear
10:55 PM 41.0 °F 35.2 °F 35.6 °F 81% 30.24 in 10.0 mi NNW 9.2 mph - N/A   Clear
11:15 PM 41.0 °F 36.4 °F 35.6 °F 81% 30.24 in 10.0 mi NNW 6.9 mph - N/A   Clear
11:35 PM 41.0 °F 35.8 °F 35.6 °F 81% 30.24 in 10.0 mi North 8.1 mph - N/A   Clear
11:55 PM 41.0 °F 35.2 °F 35.6 °F 81% 30.23 in 10.0 mi North 9.2 mph - N/A   Clear